Regional Weather Roundup
Issued by NWS Raleigh/Durham, NC

Home | Current Version | Previous Version | Text Only | Print | Product List | Glossary On
Versions: 1 2 3 4 5 6 7 8 9 10 11 12 13 14 15 16 17 18 19 20 21 22 23 24 25 26 27
000
ASUS42 KRAH 010110
RWRRAH
NORTH CAROLINA WEATHER ROUNDUP
NATIONAL WEATHER SERVICE RALEIGH NC
900 PM EDT FRI SEP 30 2016

NOTE: "FAIR" INDICATES FEW OR NO CLOUDS BELOW 12,000 FEET WITH NO
SIGNIFICANT WEATHER AND/OR OBSTRUCTIONS TO VISIBILITY.

NCZ001-053-055-056-065-067-010200-
WESTERN NORTH CAROLINA

CITY           SKY/WX    TMP DP  RH WIND       PRES   REMARKS
ASHEVILLE      PTCLDY    61  48  62 NW9       30.08R
JEFFERSON      CLEAR     57  48  72 CALM      30.09R
MORGANTON      CLEAR     55  54  95 CALM      30.07R
HICKORY        CLEAR     64  51  62 CALM      30.02R
RUTHERFORDTON  CLEAR     65  46  49 CALM      30.03R
MOUNT AIRY     CLEAR     65  62  89 CALM      30.04R
BOONE          CLEAR     54  50  84 CALM      30.10R
$$

NCZ021-022-025-041-071-084-088-010200-
CENTRAL NORTH CAROLINA

CITY           SKY/WX    TMP DP  RH WIND       PRES   REMARKS
CHARLOTTE      CLEAR     65  53  65 W5        30.01R
GREENSBORO     PTCLDY    71  61  70 SW5       30.00R
WINSTON-SALEM  CLEAR     67  56  67 CALM      30.02R
RALEIGH-DURHAM PTCLDY    74  70  87 SE6       30.00R
FORT BRAGG     CLEAR     73  70  91 SE2       29.99R
FAYETTEVILLE   CLEAR     72  69  90 SE5       29.99R
BURLINGTON     CLEAR     70  68  93 E3        30.00R
LAURINBURG     CLEAR     71  65  81 CALM      29.99R
$$

NCZ011-015-027-028-043-044-047-080-103-010200-
NORTHEASTERN NORTH CAROLINA

CITY           SKY/WX    TMP DP  RH WIND       PRES   REMARKS
ROCKY MT-WILSO PTCLDY    73  72  96 CALM      30.01S
GREENVILLE     PTCLDY    73  72  94 CALM      30.03S
WASHINGTON     PTCLDY    72  71  96 CALM      30.03R
ELIZABETH CITY CLOUDY    75  74  96 CALM      30.05R
MANTEO         CLOUDY    74  73  97 SE5       30.05S
CAPE HATTERAS  CLOUDY    77  74  90 S15G22    30.06R
$$

NCZ078-087-090-091-093-098-101-010200-
SOUTHEASTERN NORTH CAROLINA

CITY           SKY/WX    TMP DP  RH WIND       PRES   REMARKS
LUMBERTON      CLEAR     70  69  97 W3        29.98R
GOLDSBORO      CLEAR     73  73 100 SE5       29.99R
KINSTON        CLEAR     73  72  94 SE3       30.03R
KENANSVILLE    PTCLDY    72  70  94 CALM      30.01R
NEW BERN       PTCLDY    74  71  91 SE5       30.04R
CHERRY POINT   MOCLDY    74  72  93 SE7       30.04R
BEAUFORT       PTCLDY    78  74  87 SE9       30.03R
JACKSONVILLE   CLEAR     75  72  90 SE3       30.01R
WILMINGTON     PTCLDY    75  73  93 S5        30.00R
$$





USA.gov is the U.S. government's official web portal to all federal, state and local government web resources and services.